カタログに戻る

YZ-1 R/B

運用中MEO
NORAD 43248·ROCKET BODY·🇨🇳 China

打ち上げ Mar 29, 2018 から Xichang Satellite Launch Center

Loading…

次のパス (今後24時間)

TLE

最新Source: Space-Track

元期: Sep 13, 2026, 10:27 UTC

1 43248U 18029D   26256.43545953 -.00000062  00000-0  00000-0 0  9999
2 43248  54.5866 307.8881 0101146  44.1367 316.7355  1.77724232 54914

AllMySatでYZ-1 R/Bをリアルタイム追跡

Download on the App Store